Flag for Russia Weather past 2 weeks in Cheboksary, Russia

28 °F

Passing clouds.

Feels Like: 28 °F
Forecast: 24 / 29 °F
Wind: 1 mph from Southwest

Location: Kazan'

Current Time: Nov 25, 2015 at 3:29:26 AM

Latest Report: Nov 25, 2015 at 2:30 AM

Visibility: N/A

Pressure: 30.21 "Hg

Humidity: 86%

Dew point: 25 °F

Location of CheboksaryLocation

Historic Weather in Cheboksary — Graph


Cheboksary temperature yesterday

Maximum temperature yesterday: 34 °F (at 12:30 AM)
Minimum temperature yesterday: 28 °F (at 8:30 AM)
Average temperature yesterday: 31 °F

Past Weeks' High & Low Weather Summary

High48 °F (Nov 23, 10:30 AM)100% (Nov 10, 4:00 AM)30.24 "Hg (Nov 10, 4:00 AM)
Low14 °F (Nov 14, 9:30 PM)69% (Nov 24, 12:00 PM)29.39 "Hg (Nov 21, 1:00 PM)
Average28 °F94%29.86 "Hg
* Reported Nov 10 1:30 AM — Nov 25 1:30 AM, Cheboksary, Weather by CustomWeather, © 2015

Note: Actual official high and low records may vary slightly from our data, if they occured in-between our weather recording intervals... More about our weather records


Cheboksary weather history for previous 24 hours

Time TempWeatherWind HumidityBarometerVisibility
1:30 AM
Wed, Nov 25
30 °FPassing clouds.3 mph86%30.21 "HgN/A
1:00 AM30 °FPassing clouds.3 mph86%30.21 "HgN/A
12:30 AM30 °FOvercast.3 mph93%30.24 "HgN/A
11:30 PM
Tue, Nov 24
30 °FOvercast.3 mph93%30.24 "HgN/A
11:00 PM30 °FOvercast.3 mph93%30.24 "HgN/A
10:30 PM30 °FOvercast.3 mph93%30.24 "HgN/A
10:00 PM30 °FOvercast.3 mph93%30.24 "HgN/A
9:30 PM30 °FPassing clouds.3 mph93%30.21 "HgN/A
9:00 PM30 °FPassing clouds.3 mph93%30.21 "HgN/A
8:30 PM30 °FPassing clouds.3 mph86%30.21 "HgN/A
8:00 PM30 °FPassing clouds.1 mph93%30.21 "HgN/A
7:30 PM30 °FPassing clouds.1 mph93%30.21 "HgN/A
7:00 PM30 °FPassing clouds.3 mph86%30.21 "HgN/A
6:30 PM30 °FPassing clouds.1 mph86%30.21 "HgN/A
6:00 PM30 °FPassing clouds.1 mph86%30.21 "HgN/A
5:30 PM30 °FPassing clouds.3 mph86%30.21 "HgN/A
5:00 PM30 °FPassing clouds.3 mph86%30.21 "HgN/A
4:30 PM30 °FPassing clouds.6 mph86%30.21 "HgN/A
4:00 PM30 °FPartly sunny.6 mph86%30.21 "HgN/A
3:30 PM30 °FPartly sunny.6 mph86%30.21 "HgN/A
3:00 PM30 °FPartly sunny.6 mph86%30.18 "HgN/A
2:30 PM30 °FPartly sunny.6 mph86%30.18 "HgN/A
2:00 PM30 °FPartly sunny.6 mph86%30.18 "HgN/A
1:30 PM30 °FPartly sunny.6 mph80%30.18 "HgN/A
1:00 PM32 °FPartly sunny.6 mph75%30.15 "HgN/A
12:30 PM32 °FPartly sunny.6 mph69%30.15 "HgN/A
12:00 PM32 °FPartly sunny.3 mph69%30.15 "HgN/A
11:30 AM30 °FPartly sunny.3 mph75%30.15 "HgN/A
11:00 AM30 °FScattered clouds.6 mph75%30.15 "HgN/A
10:30 AM30 °FPassing clouds.6 mph75%30.15 "HgN/A
10:00 AM30 °FSunny.6 mph80%30.15 "Hg10 mi
9:30 AM28 °FSunny.3 mph86%30.12 "Hg10 mi
9:00 AM28 °FPassing clouds.3 mph86%30.12 "HgN/A
8:30 AM28 °FPassing clouds.3 mph86%30.12 "HgN/A
8:00 AM30 °FPassing clouds.8 mph86%30.12 "HgN/A
7:30 AM30 °FOvercast.10 mph86%30.09 "HgN/A
6:30 AM32 °FOvercast.10 mph93%30.07 "HgN/A
6:00 AM32 °FLow clouds.10 mph100%30.07 "HgN/A
5:30 AM34 °FLow clouds.8 mph93%30.07 "HgN/A
5:00 AM34 °FLow clouds.8 mph100%30.04 "HgN/A
4:30 AM34 °FLow clouds.8 mph93%30.04 "HgN/A
4:00 AM32 °FLight rain. Ice fog.8 mph100%30.04 "Hg3 mi
3:30 AM34 °FLight rain. Fog.8 mph93%30.01 "Hg3 mi
3:00 AM34 °FLow clouds.6 mph100%30.01 "HgN/A
Weather by CustomWeather, © 2015

See weather overviewHow to use our weather pages